When you browse on this site, cookies collect data to enhance your experience and personalize the content and advertising you see.
Visit our Privacy Policy to learn more. By continuing to use the site, you agree to this use of cookies and data.
  • en France
  • Liste des pays
  • À 7 jours
  • Température de l'eau
  • Carte satellitaire
  • Carte météo
  • Widgets météo
  • user-avatar
    Se connecter

    Météo par heure à Santa Fe

    Ce jour, 22 Janvier, Mardi

    Heure Température Précipitation Vent Pression Humidité
    00:00 +26°C° 0 mm 2 m/s 757 mmHg 75%
    01:00 +26°C° 0 mm 2 m/s 757 mmHg 76%
    02:00 +25°C° 0 mm 2 m/s 756 mmHg 76%
    03:00 +25°C° 0 mm 2 m/s 756 mmHg 78%
    04:00 +25°C° 0 mm 2 m/s 756 mmHg 80%
    05:00 +24°C° 0 mm 2 m/s 756 mmHg 82%
    06:00 +25°C° 0 mm 2 m/s 756 mmHg 80%
    07:00 +26°C° 0 mm 3 m/s 756 mmHg 77%
    08:00 +27°C° 0 mm 3 m/s 757 mmHg 75%
    09:00 +28°C° 0 mm 3 m/s 757 mmHg 73%
    10:00 +28°C° 0 mm 3 m/s 756 mmHg 71%
    11:00 +29°C° 0 mm 3 m/s 756 mmHg 69%
    12:00 +31°C° 0 mm 3 m/s 756 mmHg 63%
    13:00 +34°C° 0 mm 4 m/s 755 mmHg 57%
    14:00 +35°C° 0 mm 4 m/s 755 mmHg 52%
    15:00 +35°C° 0 mm 4 m/s 755 mmHg 53%
    16:00 +35°C° 0 mm 3 m/s 754 mmHg 54%
    17:00 +35°C° 0 mm 3 m/s 754 mmHg 56%
    18:00 +34°C° 0 mm 3 m/s 754 mmHg 61%
    19:00 +31°C° 0 mm 2 m/s 754 mmHg 66%
    20:00 +30°C° 0 mm 2 m/s 754 mmHg 72%
    21:00 +29°C° 0 mm 2 m/s 755 mmHg 74%
    22:00 +29°C° 0 mm 2 m/s 755 mmHg 77%
    23:00 +29°C° 0 mm 2 m/s 755 mmHg 79%

    Demain, 23 Janvier, Mercredi

    Heure Température Précipitation Vent Pression Humidité
    00:00 +28°C° 0 mm 2 m/s 755 mmHg 80%
    01:00 +28°C° 0 mm 2 m/s 755 mmHg 82%
    02:00 +28°C° 0 mm 2 m/s 755 mmHg 83%
    03:00 +27°C° 0 mm 2 m/s 755 mmHg 83%
    04:00 +27°C° 0 mm 2 m/s 755 mmHg 84%
    05:00 +27°C° 0 mm 2 m/s 755 mmHg 84%
    06:00 +28°C° 0.3 mm 2 m/s 756 mmHg 82%
    07:00 +29°C° 0.3 mm 3 m/s 757 mmHg 80%
    08:00 +30°C° 0.3 mm 4 m/s 758 mmHg 77%
    09:00 +32°C° 0 mm 4 m/s 758 mmHg 71%
    10:00 +34°C° 0 mm 4 m/s 758 mmHg 65%
    11:00 +35°C° 0 mm 3 m/s 758 mmHg 59%
    12:00 +35°C° 0.1 mm 3 m/s 757 mmHg 61%
    13:00 +34°C° 0.1 mm 2 m/s 757 mmHg 63%
    14:00 +32°C° 0.1 mm 2 m/s 757 mmHg 65%
    15:00 +33°C° 0.2 mm 3 m/s 756 mmHg 66%
    16:00 +33°C° 0.2 mm 4 m/s 756 mmHg 67%
    17:00 +32°C° 0.2 mm 5 m/s 756 mmHg 68%
    18:00 +30°C° 0 mm 4 m/s 756 mmHg 71%
    19:00 +29°C° 0 mm 3 m/s 756 mmHg 75%
    20:00 +28°C° 0 mm 3 m/s 756 mmHg 78%
    21:00 +28°C° 0 mm 3 m/s 756 mmHg 77%
    22:00 +28°C° 0 mm 3 m/s 756 mmHg 77%
    23:00 +28°C° 0 mm 3 m/s 757 mmHg 76%

    Après-demain, 24 Janvier, Jeudi

    Heure Température Précipitation Vent Pression Humidité
    00:00 +27°C° 0.1 mm 3 m/s 757 mmHg 77%
    01:00 +27°C° 0.1 mm 3 m/s 756 mmHg 78%
    02:00 +27°C° 0.1 mm 2 m/s 756 mmHg 80%
    03:00 +27°C° 0.4 mm 2 m/s 756 mmHg 83%
    04:00 +26°C° 0.4 mm 2 m/s 756 mmHg 85%
    05:00 +26°C° 0.4 mm 2 m/s 756 mmHg 88%
    06:00 +27°C° 0 mm 3 m/s 757 mmHg 85%
    07:00 +28°C° 0 mm 4 m/s 757 mmHg 81%
    08:00 +29°C° 0 mm 5 m/s 757 mmHg 77%
    09:00 +32°C° 0 mm 5 m/s 757 mmHg 70%
    10:00 +34°C° 0 mm 5 m/s 757 mmHg 63%
    11:00 +36°C° 0 mm 5 m/s 757 mmHg 56%
    12:00 +37°C° 0 mm 5 m/s 757 mmHg 53%
    13:00 +39°C° 0 mm 5 m/s 756 mmHg 50%
    14:00 +40°C° 0 mm 5 m/s 755 mmHg 48%
    15:00 +40°C° 0 mm 5 m/s 755 mmHg 50%
    16:00 +40°C° 0 mm 5 m/s 755 mmHg 52%
    17:00 +39°C° 0 mm 5 m/s 754 mmHg 54%
    18:00 +37°C° 0 mm 5 m/s 754 mmHg 59%
    19:00 +35°C° 0 mm 5 m/s 754 mmHg 64%
    20:00 +34°C° 0 mm 5 m/s 755 mmHg 70%
    21:00 +33°C° 0 mm 5 m/s 754 mmHg 69%
    22:00 +33°C° 0 mm 5 m/s 754 mmHg 69%
    23:00 +33°C° 0 mm 6 m/s 754 mmHg 69%

    25 Janvier, Vendredi

    Heure Température Précipitation Vent Pression Humidité
    00:00 +32°C° 0 mm 6 m/s 754 mmHg 69%
    01:00 +30°C° 0 mm 6 m/s 753 mmHg 70%
    02:00 +30°C° 0 mm 5 m/s 753 mmHg 71%
    03:00 +29°C° 0 mm 5 m/s 753 mmHg 73%
    04:00 +29°C° 0 mm 5 m/s 753 mmHg 75%
    05:00 +28°C° 0 mm 5 m/s 753 mmHg 77%
    06:00 +29°C° 0 mm 5 m/s 754 mmHg 75%
    07:00 +30°C° 0 mm 5 m/s 754 mmHg 73%
    08:00 +30°C° 0 mm 5 m/s 754 mmHg 71%
    09:00 +33°C° 0 mm 5 m/s 754 mmHg 65%
    10:00 +35°C° 0 mm 5 m/s 753 mmHg 60%
    11:00 +37°C° 0 mm 5 m/s 753 mmHg 55%
    12:00 +39°C° 0 mm 5 m/s 753 mmHg 52%
    13:00 +40°C° 0 mm 4 m/s 753 mmHg 48%
    14:00 +42°C° 0 mm 3 m/s 752 mmHg 45%
    15:00 +42°C° 0 mm 3 m/s 752 mmHg 45%
    16:00 +42°C° 0 mm 3 m/s 752 mmHg 46%
    17:00 +41°C° 0 mm 2 m/s 752 mmHg 46%
    18:00 +39°C° 0 mm 3 m/s 751 mmHg 51%
    19:00 +37°C° 0 mm 3 m/s 751 mmHg 56%
    20:00 +36°C° 0 mm 4 m/s 751 mmHg 61%
    21:00 +35°C° 0 mm 4 m/s 752 mmHg 64%
    22:00 +35°C° 0 mm 5 m/s 752 mmHg 66%
    23:00 +34°C° 0 mm 5 m/s 752 mmHg 69%

    26 Janvier, Samedi

    Heure Température Précipitation Vent Pression Humidité
    00:00 +34°C° 0 mm 5 m/s 752 mmHg 69%
    01:00 +34°C° 0 mm 5 m/s 752 mmHg 70%
    02:00 +33°C° 0 mm 4 m/s 752 mmHg 70%
    03:00 +32°C° 1 mm 4 m/s 753 mmHg 74%
    04:00 +30°C° 1 mm 3 m/s 753 mmHg 78%
    05:00 +29°C° 1 mm 3 m/s 753 mmHg 83%
    06:00 +29°C° 1.6 mm 3 m/s 753 mmHg 84%
    07:00 +29°C° 1.6 mm 4 m/s 754 mmHg 86%
    08:00 +29°C° 1.6 mm 4 m/s 755 mmHg 87%
    09:00 +29°C° 6.5 mm 3 m/s 755 mmHg 87%
    10:00 +30°C° 6.5 mm 2 m/s 755 mmHg 88%
    11:00 +30°C° 6.5 mm 1 m/s 756 mmHg 88%
    12:00 +30°C° 3.3 mm 1 m/s 755 mmHg 88%
    13:00 +30°C° 3.3 mm 1 m/s 755 mmHg 88%
    14:00 +30°C° 3.3 mm 1 m/s 755 mmHg 88%
    15:00 +30°C° 1.6 mm 2 m/s 755 mmHg 88%
    16:00 +30°C° 1.6 mm 2 m/s 754 mmHg 88%
    17:00 +29°C° 1.6 mm 3 m/s 754 mmHg 88%
    18:00 +29°C° 1.2 mm 3 m/s 754 mmHg 88%
    19:00 +29°C° 1.2 mm 4 m/s 754 mmHg 89%
    20:00 +28°C° 1.2 mm 5 m/s 754 mmHg 89%
    21:00 +28°C° 0.1 mm 4 m/s 754 mmHg 89%
    22:00 +28°C° 0.1 mm 3 m/s 754 mmHg 89%
    23:00 +28°C° 0.1 mm 3 m/s 754 mmHg 88%

    27 Janvier, Dimanche

    Heure Température Précipitation Vent Pression Humidité
    00:00 +28°C° 0.9 mm 2 m/s 754 mmHg 89%
    01:00 +28°C° 0.9 mm 2 m/s 753 mmHg 91%
    02:00 +28°C° 0.9 mm 1 m/s 753 mmHg 92%
    03:00 +28°C° 2.6 mm 1 m/s 753 mmHg 93%
    04:00 +27°C° 2.6 mm 1 m/s 753 mmHg 94%
    05:00 +27°C° 2.6 mm 1 m/s 753 mmHg 94%
    06:00 +28°C° 0.1 mm 2 m/s 754 mmHg 93%
    07:00 +29°C° 0.1 mm 2 m/s 754 mmHg 91%
    08:00 +29°C° 0.1 mm 3 m/s 755 mmHg 89%
    09:00 +30°C° 0.1 mm 3 m/s 755 mmHg 84%
    10:00 +32°C° 0.1 mm 4 m/s 755 mmHg 79%
    11:00 +33°C° 0.1 mm 4 m/s 755 mmHg 74%
    12:00 +31°C° 3.9 mm 3 m/s 754 mmHg 79%
    13:00 +29°C° 3.9 mm 3 m/s 754 mmHg 85%
    14:00 +28°C° 3.9 mm 2 m/s 753 mmHg 90%
    15:00 +28°C° 1.7 mm 2 m/s 753 mmHg 90%
    16:00 +28°C° 1.7 mm 2 m/s 753 mmHg 89%
    17:00 +28°C° 1.7 mm 2 m/s 753 mmHg 89%
    18:00 +28°C° 1.6 mm 3 m/s 753 mmHg 88%
    19:00 +28°C° 1.6 mm 3 m/s 753 mmHg 88%
    20:00 +28°C° 1.6 mm 3 m/s 753 mmHg 87%
    21:00 +28°C° 0.2 mm 3 m/s 753 mmHg 87%
    22:00 +28°C° 0.2 mm 3 m/s 753 mmHg 87%
    23:00 +28°C° 0.2 mm 3 m/s 754 mmHg 87%
    Voir plus